Theta_e
334 332 331 330 329 328 326 325 325 325 325 326 326 326 326 327 327 327 327 327 327 328 327 327 327 330 320 312 310 317 335 327 319 319 315 314 311 310 305 306 308 306 307 308 308 307 306
336 335 334 332 331 330 329 328 327 326 326 326 326 326 326 326 326 326 326 326 326 327 326 326 327 327 315 306 317 318 317 317 317 317 314 314 311 312 307 305 306 307 305 304 306 305 305
336 336 335 334 333 332 331 330 329 327 327 327 326 326 325 325 325 325 325 326 325 325 326 326 327 320 311 309 317 318 317 316 316 316 312 313 313 311 309 305 308 306 302 304 306 306 305
335 335 336 335 334 333 332 331 330 328 327 327 326 325 324 324 324 324 325 324 324 324 326 327 326 317 307 316 319 314 318 316 316 316 314 314 314 311 309 309 306 304 304 302 306 305 305
329 332 335 335 335 334 332 331 330 328 327 326 326 325 323 323 323 324 324 323 324 326 325 326 318 312 306 315 312 315 317 313 314 315 314 314 314 309 308 306 303 304 300 299 301 305 304
328 329 330 332 333 334 333 332 331 329 328 327 326 324 322 323 323 323 322 322 326 322 319 319 315 308 310 307 311 313 316 315 311 311 311 310 310 307 305 303 298 300 299 299 299 302 302
325 327 329 328 329 332 333 333 331 330 328 326 325 323 322 323 323 322 320 320 311 309 312 308 307 306 307 311 312 311 314 311 311 308 303 308 303 301 304 303 301 299 298 298 301 302 299
322 324 325 328 328 327 329 331 330 329 328 327 326 323 322 322 322 320 319 313 311 312 306 312 310 308 310 310 305 309 312 306 305 301 304 303 300 305 303 302 300 300 298 299 301 301 299
319 321 322 323 325 327 326 325 328 328 328 327 326 323 321 321 321 319 316 314 318 318 306 308 311 309 308 309 305 307 309 307 303 301 302 300 302 303 301 300 300 300 298 298 297 300 302
317 318 320 321 322 324 326 325 324 326 327 327 325 323 321 320 315 318 315 317 319 318 301 302 303 307 308 308 303 309 310 307 303 300 301 301 303 301 300 300 301 297 299 298 297 298 297
317 317 318 319 321 322 323 324 323 323 324 325 324 322 320 317 317 314 315 320 318 312 289 301 302 309 308 304 304 303 308 306 301 301 301 299 300 299 299 300 301 298 300 298 298 298 299
316 317 317 318 319 320 321 322 323 323 322 324 324 322 317 319 320 317 320 320 314 297 289 297 302 301 301 303 302 304 304 307 306 301 302 301 302 302 301 300 299 301 299 300 301 300 294
316 316 316 317 317 319 320 321 322 323 322 321 323 321 317 321 315 319 320 313 297 292 299 296 298 300 301 300 300 301 300 299 298 294 295 299 299 301 301 298 300 299 298 295 295 294 295
315 315 317 317 316 317 318 320 321 321 323 320 320 319 320 321 322 319 316 304 292 297 299 300 299 300 298 300 300 300 299 298 301 300 298 295 292 298 301 300 299 298 299 295 291 294 297
314 316 316 317 317 316 317 318 319 321 321 319 318 317 318 322 322 318 309 295 295 298 301 298 298 296 297 299 298 299 298 298 301 301 295 295 295 298 298 300 300 298 294 300 296 297 294
315 315 316 316 316 316 316 316 318 319 319 317 317 311 314 322 321 313 303 295 299 302 301 301 296 299 297 297 296 298 298 301 300 303 303 299 293 296 296 297 299 298 300 294 295 292 292
315 315 315 315 315 316 316 316 316 318 318 316 311 305 308 321 319 306 294 297 300 303 302 299 298 298 299 298 298 297 298 301 303 302 303 301 297 294 295 294 296 295 295 296 297 298 296
314 314 314 315 315 315 315 315 316 317 316 313 309 300 304 314 304 303 298 298 301 302 305 301 300 301 299 300 298 299 298 300 303 302 297 301 298 294 296 298 299 298 298 298 295 296 296
313 313 314 314 313 314 314 315 315 315 313 313 303 303 305 304 294 298 301 301 300 301 301 301 299 301 302 299 296 300 300 302 302 301 300 301 296 292 294 296 296 294 297 298 299 299 298
312 312 312 313 313 313 313 313 314 314 314 313 303 296 297 298 300 295 301 298 297 303 302 302 301 302 300 298 301 299 299 301 302 301 303 304 298 295 293 296 299 293 295 297 297 294 295
310 311 311 312 313 312 313 313 313 313 313 310 303 298 299 291 292 296 298 300 297 296 302 303 299 300 299 296 297 297 300 300 300 303 300 301 294 298 298 299 297 297 296 296 294 296 295
309 310 310 311 312 312 312 312 312 312 312 306 298 298 300 296 297 297 297 298 299 299 299 300 298 300 299 297 298 297 300 300 300 300 299 301 295 297 295 298 297 295 297 297 296 296 297
308 309 309 310 311 311 311 311 311 311 310 304 305 305 300 298 296 295 295 299 299 301 302 303 303 301 299 300 303 304 305 305 304 301 298 299 296 295 291 297 296 292 296 297 298 299 298
308 308 309 309 310 310 310 311 311 311 309 308 305 305 297 290 294 295 297 298 298 300 300 303 304 302 305 309 307 305 304 303 303 302 304 299 298 297 293 295 286 298 301 302 299 300 301
307 307 308 308 309 309 310 310 311 311 310 309 308 302 295 289 295 295 297 298 300 302 300 302 304 307 310 306 300 296 296 296 298 300 300 302 299 298 292 292 296 298 298 299 298 299 304
306 307 307 307 308 308 309 309 310 310 310 309 309 310 300 290 289 295 293 296 296 297 300 301 304 304 302 299 295 291 289 292 292 294 301 301 301 297 296 290 287 298 300 306 303 295 305
306 306 306 307 308 308 308 309 308 309 310 309 306 309 301 292 294 296 293 294 299 298 296 300 301 300 301 296 293 290 291 296 291 291 290 293 295 292 294 292 295 302 302 305 293 299 307
305 306 306 307 308 308 308 308 308 308 309 308 304 308 300 294 295 297 298 296 296 295 293 300 299 300 294 291 293 294 294 297 295 296 295 292 291 292 294 291 289 305 301 298 304 310 308
305 305 306 307 307 307 307 308 308 308 308 308 302 308 309 298 295 302 301 302 302 300 297 297 300 300 300 295 296 298 296 299 298 292 300 293 297 295 296 296 304 306 305 307 309 309 310
Wind_Speed
7 7 6 5 6 5 4 2 3 4 5 6 7 9 11 11 13 14 15 15 17 18 18 17 16 14 10 9 4 6 1 6 8 7 5 6 7 2 5 2 4 4 3 1 3 2 3
9 8 8 7 7 6 6 6 7 6 6 8 8 9 11 12 13 14 15 16 18 18 17 17 15 14 9 12 4 2 2 3 4 6 3 5 4 4 1 0 5 2 2 3 4 4 3
10 9 9 9 8 8 8 6 6 7 8 8 9 11 11 11 12 14 15 16 18 18 17 15 12 6 8 9 2 1 2 1 3 4 3 3 4 7 1 3 2 2 5 5 7 5 3
4 8 10 9 10 9 9 8 7 7 7 9 10 10 11 11 12 14 15 17 19 19 15 10 7 9 8 3 3 4 4 2 1 1 2 2 2 0 5 1 5 5 6 9 7 5 5
13 12 8 11 9 10 10 10 9 7 6 7 9 11 10 12 13 15 17 20 20 14 6 8 7 7 8 4 6 4 5 5 1 1 1 1 4 3 4 7 7 8 3 3 7 5 1
14 12 12 11 8 10 9 8 9 8 7 6 8 9 11 11 14 15 19 22 9 8 5 6 4 7 7 1 2 2 3 4 4 3 5 6 6 8 7 8 4 3 4 3 4 6 7
13 13 12 11 11 10 8 7 8 9 8 8 7 9 9 11 13 15 16 6 6 7 9 8 1 4 0 3 4 6 5 6 6 8 10 4 8 7 4 4 5 5 5 6 2 4 5
12 12 12 12 10 10 10 10 8 9 7 8 8 8 10 11 12 13 10 5 5 4 9 12 14 7 4 2 4 7 5 7 7 10 3 6 10 5 1 0 4 5 7 6 2 1 4
10 11 12 13 12 10 10 10 9 8 8 8 8 8 10 13 13 9 5 5 5 5 7 5 9 12 11 7 7 9 9 5 9 10 9 13 6 3 3 4 6 6 7 7 6 9 13
8 10 10 11 12 13 11 10 9 10 10 8 7 7 8 16 7 6 0 4 6 3 7 9 7 4 7 6 6 1 6 5 5 9 5 9 6 5 6 7 5 9 4 3 5 7 3
9 9 10 9 10 11 11 11 10 9 9 10 6 5 4 6 10 5 5 8 6 5 8 7 5 3 4 12 6 5 1 5 8 6 5 4 5 8 9 4 3 4 1 4 5 8 9
10 9 9 8 9 9 10 11 12 10 9 9 8 5 2 6 5 5 8 8 5 7 9 4 5 7 10 12 4 4 7 3 4 3 8 5 1 4 3 4 2 3 5 7 5 5 7
11 10 10 8 9 9 9 10 11 11 9 11 9 7 6 5 5 5 9 5 7 9 4 6 5 7 12 10 11 8 11 12 10 6 13 11 12 4 4 5 4 7 7 4 5 6 3
11 12 11 8 8 9 9 10 10 10 9 9 9 7 8 8 4 6 6 8 13 2 11 4 2 7 9 8 10 11 9 14 17 12 8 10 8 14 12 10 5 13 8 6 5 3 3
12 12 11 11 11 9 9 10 11 11 11 9 2 3 4 5 7 5 7 14 7 13 1 5 7 8 11 8 5 11 16 16 16 16 9 7 4 3 2 2 4 7 8 4 6 3 5
13 14 13 11 11 10 9 10 11 10 11 4 0 1 5 7 8 7 9 21 15 1 1 8 10 12 9 13 10 10 11 8 19 14 20 3 5 3 5 3 7 6 5 4 6 5 6
16 15 14 13 11 10 9 10 10 10 10 7 1 3 1 9 9 8 15 20 23 5 4 7 9 6 9 8 15 9 4 4 11 9 17 10 8 6 5 12 12 7 7 7 5 5 4
18 18 16 15 12 10 10 9 9 8 5 4 2 4 2 7 9 6 14 19 12 12 11 7 6 8 10 9 10 12 10 9 4 9 10 17 7 11 10 5 4 10 13 16 6 6 5
19 20 18 16 14 12 11 10 8 7 10 3 4 2 3 3 7 12 9 18 25 20 17 12 9 8 6 7 7 14 5 5 8 12 8 13 9 8 7 3 4 9 14 15 18 4 10
19 20 20 17 15 12 12 11 9 8 9 5 3 4 1 2 4 5 18 18 22 18 22 19 15 16 9 11 12 4 7 4 8 10 4 4 11 13 11 5 3 8 15 21 19 10 10
20 20 20 19 16 14 13 13 13 10 10 5 5 4 5 5 7 8 11 8 20 21 20 14 19 21 16 18 17 16 12 5 7 7 4 7 10 15 20 19 5 10 10 19 24 25 16
22 21 21 21 19 16 16 14 14 12 12 7 4 5 2 1 7 21 19 22 25 19 26 22 23 17 24 23 20 14 18 14 11 12 11 8 10 10 18 16 18 21 20 16 21 24 25
23 23 22 22 19 18 17 16 13 15 13 6 7 7 3 5 6 8 15 21 23 20 25 28 21 21 25 22 23 22 18 10 10 10 16 11 9 11 16 17 10 18 26 26 24 19 21
24 24 21 22 21 19 18 17 17 16 16 9 9 5 7 14 9 11 12 15 19 25 24 18 26 28 21 17 21 17 17 19 19 17 11 10 14 10 9 5 15 11 2 17 28 24 25
24 25 24 22 21 20 19 19 20 18 19 10 9 6 5 8 12 17 22 24 19 22 24 22 25 19 18 18 17 21 17 24 27 24 23 19 14 6 9 14 19 21 5 5 12 20 24
26 26 26 24 22 21 20 19 20 20 19 11 9 8 6 5 10 13 14 14 17 15 22 25 18 13 11 8 10 21 14 16 12 13 25 20 19 15 10 11 14 4 7 17 8 16 16
26 26 27 26 24 22 21 21 22 21 20 12 8 14 7 9 6 10 8 10 5 6 6 12 17 16 8 10 13 14 19 16 19 21 8 14 16 21 17 19 16 15 9 11 10 2 6
26 26 27 27 24 22 22 22 22 22 21 13 11 12 10 6 12 16 16 20 12 8 10 6 8 14 5 12 14 12 15 19 20 23 17 16 13 12 16 20 28 3 11 16 5 2 2
27 27 27 27 25 24 22 23 22 24 21 17 9 9 10 11 4 14 23 25 22 19 7 7 13 13 12 9 9 9 14 12 20 19 22 20 15 14 13 12 12 10 16 16 19 11 7
Wind_Direction
255 253 258 273 286 306 311 305 333 341 343 347 346 342 339 333 333 333 331 329 330 329 326 321 318 317 306 237 266 105 167 222 261 269 294 295 267 241 226 196 209 247 146 171 126 190 249
251 253 255 259 273 277 289 314 323 323 328 332 334 336 335 332 327 326 325 323 323 321 318 315 310 308 259 264 68 82 347 258 304 278 322 291 332 327 67 277 273 85 193 161 187 197 224
245 259 261 262 259 271 276 280 294 308 317 322 329 333 336 331 323 318 319 319 315 312 310 307 296 287 265 273 24 302 227 332 327 313 293 0 322 267 314 173 180 184 217 194 208 211 242
305 300 272 273 255 254 262 270 277 292 308 318 325 332 333 328 321 315 315 314 307 305 300 289 280 265 268 91 320 226 212 184 221 61 54 344 304 292 296 104 206 230 234 214 141 194 145
11 360 330 305 251 260 257 266 272 276 290 309 322 326 332 327 320 316 313 306 298 292 271 273 255 245 263 135 211 200 242 259 187 196 92 231 259 289 192 232 203 202 283 219 160 204 249
11 6 1 353 326 290 261 267 274 276 281 294 312 320 323 325 323 321 315 292 287 286 220 227 266 256 208 231 104 210 188 231 244 232 219 228 235 242 222 229 343 23 263 178 282 136 230
4 8 2 1 359 344 323 305 294 283 279 289 298 312 318 320 324 321 325 295 216 194 212 247 343 253 184 111 195 214 184 205 227 235 251 190 260 231 24 9 339 323 297 283 291 93 284
358 356 4 359 351 355 353 323 298 293 283 281 294 309 315 317 318 309 289 339 51 342 298 242 240 259 238 324 219 204 192 221 209 242 207 225 241 47 52 350 295 289 292 289 268 44 271
338 346 351 351 352 345 351 355 332 292 287 281 286 308 312 311 309 289 345 64 341 308 260 224 226 229 212 208 232 192 197 219 245 243 233 265 55 126 223 220 259 248 289 324 311 317 245
330 330 334 343 344 344 339 346 348 328 285 278 283 300 318 307 280 349 200 347 326 278 273 177 191 188 181 211 230 94 219 254 219 261 240 262 103 196 227 255 272 285 52 299 301 305 309
323 317 323 330 339 340 341 332 332 340 318 280 257 277 314 321 314 283 5 320 310 231 277 110 148 80 149 190 122 157 135 203 251 210 226 74 187 209 235 269 232 27 11 294 296 287 302
307 308 310 318 326 330 333 334 324 331 345 287 260 234 230 235 256 310 309 310 249 229 248 127 139 177 167 205 162 128 180 225 344 235 240 287 8 247 293 103 272 100 240 237 263 268 247
292 299 301 306 311 314 317 323 328 320 340 342 252 218 200 310 313 326 302 234 222 243 122 149 193 186 200 181 206 204 184 193 207 205 224 207 215 149 195 200 180 218 245 216 210 201 263
281 289 293 295 297 302 310 314 316 322 311 323 302 180 216 258 312 298 265 222 236 309 243 95 215 190 197 182 217 198 212 219 216 250 285 210 188 188 183 234 307 203 251 276 276 228 111
274 275 275 283 293 293 298 307 314 319 321 315 234 206 251 224 228 253 237 221 226 236 190 181 161 200 200 200 270 209 226 230 220 202 226 209 200 105 252 217 274 151 218 12 289 217 267
267 272 269 268 274 282 287 300 309 319 329 146 203 217 232 186 188 217 228 232 223 124 131 208 233 199 209 191 206 200 213 214 226 209 228 290 251 204 130 225 230 268 359 195 213 248 239
270 265 263 264 262 266 274 286 297 310 326 158 117 257 284 177 185 218 226 222 235 173 220 232 246 248 254 175 209 198 256 177 211 207 214 226 239 125 174 207 202 188 221 224 300 266 277
270 267 264 259 259 260 262 264 279 293 336 166 184 244 337 246 198 212 228 221 255 252 198 259 280 272 257 213 212 226 241 228 187 167 200 214 269 237 218 107 303 279 227 219 245 194 253
266 264 262 265 260 256 253 250 255 266 180 155 248 267 12 327 211 218 224 233 238 244 231 226 239 234 223 228 231 215 232 48 168 193 204 173 222 230 207 204 198 228 222 242 236 292 236
266 263 265 261 261 259 245 244 240 238 212 247 281 221 192 240 292 272 222 218 224 228 244 242 251 251 233 237 233 287 228 167 200 223 32 230 253 231 226 44 84 208 214 212 221 225 231
267 264 263 262 260 255 252 233 237 226 235 212 212 254 184 192 229 235 247 226 216 230 228 223 242 240 237 244 239 228 242 178 188 202 221 223 245 241 252 271 225 268 217 211 220 229 240
265 262 260 256 255 252 254 250 237 228 223 232 257 221 164 189 209 221 225 227 239 218 233 220 237 235 234 243 242 236 234 229 233 181 202 216 242 251 265 264 261 250 244 222 225 236 245
264 262 257 255 255 252 248 248 240 231 211 237 231 275 262 192 207 207 222 230 233 233 234 238 246 228 242 241 249 262 269 259 268 185 203 200 223 232 262 257 270 261 238 233 227 220 226
265 264 262 256 253 249 249 245 241 231 220 234 249 264 243 254 238 235 229 235 232 237 241 238 232 247 251 239 264 257 268 267 251 242 225 212 219 235 253 247 246 252 56 225 223 225 227
261 257 257 256 253 250 244 244 243 236 230 231 236 224 260 269 255 252 241 238 237 243 240 246 251 250 268 255 239 249 250 248 236 237 233 231 230 237 226 233 268 267 220 171 200 240 235
264 255 255 253 252 250 247 244 243 239 232 233 235 226 229 252 235 268 286 294 243 230 238 235 238 266 297 287 215 225 224 227 223 228 210 219 232 229 218 232 238 88 341 193 191 268 236
261 256 253 252 252 253 248 242 243 239 237 227 238 224 230 244 223 246 234 278 291 243 241 231 220 223 204 224 233 226 235 242 229 213 170 203 203 222 226 241 259 252 132 143 195 325 14
260 256 253 252 252 252 253 245 241 238 235 226 240 226 225 237 240 242 234 250 262 241 270 222 228 201 152 214 222 218 236 224 240 241 188 181 192 207 227 232 250 255 149 199 201 75 306
262 256 252 251 251 251 248 245 240 238 234 223 244 232 225 237 261 242 231 240 237 244 272 276 296 197 192 199 236 226 240 228 228 234 227 215 207 209 198 227 268 181 224 209 249 272 282